EN

Hourly Weather Botad

Today, 13 May, Thursday

Time Temperature Precipitation Wind Pressure Humidity
00:00 +34°C° 0 mm 7 mps 744 mmHg 48%
01:00 +33°C° 0 mm 6 mps 744 mmHg 52%
02:00 +32°C° 0 mm 6 mps 744 mmHg 56%
03:00 +32°C° 0 mm 5 mps 744 mmHg 60%
04:00 +30°C° 0 mm 5 mps 744 mmHg 63%
05:00 +30°C° 0 mm 4 mps 745 mmHg 66%
06:00 +30°C° 0 mm 4 mps 745 mmHg 62%
07:00 +32°C° 0 mm 5 mps 746 mmHg 58%
08:00 +33°C° 0 mm 5 mps 746 mmHg 53%
09:00 +35°C° 0 mm 4 mps 746 mmHg 44%
10:00 +37°C° 0 mm 4 mps 746 mmHg 35%
11:00 +40°C° 0 mm 4 mps 746 mmHg 26%
12:00 +41°C° 0 mm 4 mps 745 mmHg 23%
13:00 +42°C° 0 mm 4 mps 744 mmHg 20%
14:00 +43°C° 0 mm 4 mps 743 mmHg 17%
15:00 +44°C° 0 mm 4 mps 742 mmHg 16%
16:00 +44°C° 0 mm 4 mps 742 mmHg 16%
17:00 +44°C° 0 mm 4 mps 742 mmHg 15%
18:00 +42°C° 0 mm 5 mps 742 mmHg 21%
19:00 +41°C° 0 mm 6 mps 742 mmHg 27%
20:00 +39°C° 0 mm 6 mps 743 mmHg 33%
21:00 +38°C° 0 mm 6 mps 743 mmHg 38%
22:00 +36°C° 0 mm 6 mps 743 mmHg 43%
23:00 +35°C° 0 mm 6 mps 744 mmHg 48%

Tomorrow, 14 May, Friday

Time Temperature Precipitation Wind Pressure Humidity
00:00 +34°C° 0 mm 6 mps 744 mmHg 50%
01:00 +33°C° 0 mm 5 mps 743 mmHg 53%
02:00 +33°C° 0 mm 4 mps 743 mmHg 56%
03:00 +32°C° 0 mm 4 mps 743 mmHg 58%
04:00 +32°C° 0 mm 4 mps 743 mmHg 61%
05:00 +30°C° 0 mm 4 mps 743 mmHg 63%
06:00 +31°C° 0 mm 3 mps 744 mmHg 58%
07:00 +33°C° 0 mm 3 mps 744 mmHg 53%
08:00 +34°C° 0 mm 3 mps 745 mmHg 48%
09:00 +36°C° 0 mm 3 mps 745 mmHg 40%
10:00 +38°C° 0 mm 2 mps 744 mmHg 32%
11:00 +40°C° 0 mm 2 mps 744 mmHg 25%
12:00 +42°C° 0 mm 3 mps 743 mmHg 21%
13:00 +43°C° 0 mm 3 mps 743 mmHg 18%
14:00 +45°C° 0 mm 3 mps 742 mmHg 14%
15:00 +45°C° 0 mm 3 mps 742 mmHg 14%
16:00 +45°C° 0 mm 3 mps 741 mmHg 13%
17:00 +45°C° 0 mm 4 mps 741 mmHg 13%
18:00 +43°C° 0 mm 4 mps 741 mmHg 18%
19:00 +42°C° 0 mm 4 mps 742 mmHg 24%
20:00 +40°C° 0 mm 5 mps 742 mmHg 29%
21:00 +39°C° 0 mm 5 mps 743 mmHg 33%
22:00 +37°C° 0 mm 5 mps 743 mmHg 37%
23:00 +36°C° 0 mm 5 mps 743 mmHg 41%

Day after tomorrow, 15 May, Saturday

Time Temperature Precipitation Wind Pressure Humidity
00:00 +35°C° 0 mm 5 mps 743 mmHg 43%
01:00 +34°C° 0 mm 5 mps 742 mmHg 46%
02:00 +34°C° 0 mm 5 mps 742 mmHg 48%
03:00 +33°C° 0 mm 5 mps 742 mmHg 50%
04:00 +33°C° 0 mm 5 mps 742 mmHg 52%
05:00 +32°C° 0 mm 4 mps 742 mmHg 54%
06:00 +33°C° 0 mm 4 mps 743 mmHg 51%
07:00 +34°C° 0 mm 3 mps 743 mmHg 47%
08:00 +34°C° 0 mm 2 mps 744 mmHg 44%
09:00 +36°C° 0 mm 2 mps 744 mmHg 37%
10:00 +37°C° 0 mm 1 mps 744 mmHg 31%
11:00 +39°C° 0 mm 1 mps 744 mmHg 24%
12:00 +40°C° 0 mm 1 mps 743 mmHg 22%
13:00 +41°C° 0 mm 1 mps 742 mmHg 20%
14:00 +42°C° 0 mm 1 mps 742 mmHg 17%
15:00 +42°C° 0 mm 2 mps 741 mmHg 17%
16:00 +42°C° 0 mm 2 mps 741 mmHg 18%
17:00 +42°C° 0 mm 3 mps 741 mmHg 18%
18:00 +42°C° 0 mm 3 mps 741 mmHg 19%
19:00 +41°C° 0 mm 2 mps 741 mmHg 19%
20:00 +40°C° 0 mm 2 mps 741 mmHg 19%
21:00 +41°C° 0 mm 4 mps 741 mmHg 19%
22:00 +40°C° 0 mm 5 mps 742 mmHg 20%
23:00 +39°C° 0 mm 6 mps 742 mmHg 20%

16 May, Sunday

Time Temperature Precipitation Wind Pressure Humidity
00:00 +39°C° 0 mm 6 mps 741 mmHg 24%
01:00 +38°C° 0 mm 6 mps 741 mmHg 27%
02:00 +36°C° 0 mm 6 mps 741 mmHg 31%
03:00 +36°C° 0 mm 6 mps 741 mmHg 33%
04:00 +35°C° 0 mm 6 mps 741 mmHg 35%
05:00 +35°C° 0 mm 6 mps 741 mmHg 37%
06:00 +35°C° 0 mm 5 mps 742 mmHg 35%
07:00 +36°C° 0 mm 5 mps 743 mmHg 34%
08:00 +36°C° 0 mm 5 mps 743 mmHg 32%
09:00 +39°C° 0 mm 5 mps 743 mmHg 29%
10:00 +41°C° 0 mm 6 mps 743 mmHg 25%
11:00 +42°C° 0 mm 6 mps 743 mmHg 22%
12:00 +45°C° 0 mm 6 mps 742 mmHg 19%
13:00 +46°C° 0 mm 6 mps 741 mmHg 16%
14:00 +48°C° 0 mm 5 mps 740 mmHg 13%
15:00 +48°C° 0 mm 5 mps 740 mmHg 14%
16:00 +48°C° 0 mm 6 mps 739 mmHg 14%
17:00 +47°C° 0 mm 6 mps 739 mmHg 14%
18:00 +45°C° 0 mm 4 mps 739 mmHg 17%
19:00 +44°C° 0 mm 3 mps 740 mmHg 19%
20:00 +41°C° 0 mm 2 mps 741 mmHg 22%
21:00 +40°C° 0 mm 3 mps 741 mmHg 26%
22:00 +41°C° 0 mm 4 mps 742 mmHg 30%
23:00 +40°C° 0 mm 5 mps 742 mmHg 34%

17 May, Monday

Time Temperature Precipitation Wind Pressure Humidity
00:00 +38°C° 0 mm 4 mps 742 mmHg 34%
01:00 +38°C° 0 mm 3 mps 741 mmHg 34%
02:00 +38°C° 0 mm 2 mps 740 mmHg 35%
03:00 +37°C° 0.4 mm 2 mps 741 mmHg 38%
04:00 +36°C° 0.4 mm 3 mps 741 mmHg 42%
05:00 +35°C° 0.4 mm 4 mps 741 mmHg 46%
06:00 +35°C° 0.2 mm 5 mps 742 mmHg 45%
07:00 +36°C° 0.2 mm 6 mps 742 mmHg 44%
08:00 +36°C° 0.2 mm 7 mps 743 mmHg 44%
09:00 +38°C° 0 mm 8 mps 742 mmHg 41%
10:00 +39°C° 0 mm 9 mps 742 mmHg 39%
11:00 +40°C° 0 mm 10 mps 742 mmHg 36%
12:00 +40°C° 0 mm 10 mps 742 mmHg 36%
13:00 +40°C° 0 mm 10 mps 742 mmHg 36%
14:00 +42°C° 0 mm 10 mps 741 mmHg 36%
15:00 +39°C° 0 mm 9 mps 741 mmHg 41%
16:00 +38°C° 0 mm 9 mps 741 mmHg 45%
17:00 +37°C° 0 mm 8 mps 741 mmHg 49%
18:00 +35°C° 0 mm 8 mps 741 mmHg 55%
19:00 +34°C° 0 mm 8 mps 742 mmHg 60%
20:00 +33°C° 0 mm 8 mps 743 mmHg 66%
21:00 +33°C° 0 mm 8 mps 743 mmHg 67%
22:00 +32°C° 0 mm 8 mps 743 mmHg 69%
23:00 +32°C° 0 mm 8 mps 743 mmHg 71%

18 May, Tuesday

Time Temperature Precipitation Wind Pressure Humidity
00:00 +32°C° 0 mm 8 mps 743 mmHg 71%
01:00 +32°C° 0 mm 8 mps 742 mmHg 71%
02:00 +31°C° 0 mm 8 mps 742 mmHg 71%
03:00 +30°C° 0 mm 7 mps 742 mmHg 71%
04:00 +30°C° 0 mm 7 mps 742 mmHg 71%
05:00 +30°C° 0 mm 6 mps 742 mmHg 71%
06:00 +32°C° 0.4 mm 7 mps 743 mmHg 67%
07:00 +33°C° 0.4 mm 8 mps 743 mmHg 62%
08:00 +34°C° 0.4 mm 8 mps 744 mmHg 58%
09:00 +35°C° 0.1 mm 9 mps 744 mmHg 52%
10:00 +38°C° 0.1 mm 10 mps 744 mmHg 47%
11:00 +39°C° 0.1 mm 11 mps 743 mmHg 41%
12:00 +39°C° 0.2 mm 11 mps 743 mmHg 41%
13:00 +39°C° 0.2 mm 11 mps 742 mmHg 40%
14:00 +39°C° 0.2 mm 11 mps 742 mmHg 40%
15:00 +39°C° 0 mm 10 mps 742 mmHg 39%
16:00 +39°C° 0 mm 10 mps 742 mmHg 38%
17:00 +39°C° 0 mm 9 mps 742 mmHg 38%
18:00 +38°C° 0 mm 8 mps 742 mmHg 42%
19:00 +37°C° 0 mm 8 mps 743 mmHg 47%
20:00 +35°C° 0 mm 7 mps 743 mmHg 52%
21:00 +34°C° 0 mm 6 mps 743 mmHg 56%
22:00 +34°C° 0 mm 6 mps 743 mmHg 60%
23:00 +33°C° 0 mm 5 mps 743 mmHg 64%
Show more

We Need Your Consent

Meteoprog and our Service Providers may store and access personal data such as cookies, device identifiers or other similar technologies on your device and process such data to personalise content and ads, as well as provide social media features and to analyse the traffic.

  • Store and/or access information on your device

    Cookies, device identifiers or other information can be stored or accessed on your device for the purposes indicated above.

  • Personalised ads and content, ad and content measurement, audience insights, and products development

    Ads and content can be personalised based on a profile. More data can be added to better personalise ads and content. Ad and content performance can be measured. Insights about the audience who saw the ads and content can be derived. Such data can be used to develop or improve user’s experience, systems and software.

By clicking ‘I Agree’ you will allow the use of indicated cookies, device identifiers, web beacons or other similar technologies. Your settings can be changed in the browser on your device.

For certain purposes, legitimate interests may be relied on, rather than consent. You can read more about this in our Privacy and Cookie Policy.